sat.trackr.live / text

‹ back to catalog

STARLINK-32332

NORAD 62490 · 2025-003D

PAYLOAD ACTIVE UNKNOWN

§ Identity

Operator
Country
US
Launch date
2025-01-06
Launch site
AFETR
Launch vehicle
Mass (kg)
RCS (m²)

Purposes: comms

External: N2YO · Heavens-Above · Gunter

§ Orbital elements

Epoch: 2026-09-21T06:47:24.578304Z

Period
94.27 min
Inclination
43.0009°
Eccentricity
0.0001674
Mean motion
15.27586583 rev/d
Perigee alt
481.9 km
Apogee alt
484.2 km
Semi-major
6,861.2 km
B*
3.3935e-4
RAAN
264.4851°
Arg perigee
273.1780°
Mean anomaly
86.8880°
Rev number
9,656

§ Raw data

STARLINK-323321 62490U 25003D   26264.28292336  .00009089  00000+0  33935-3 0  99972 62490  43.0009 264.4851 0001674 273.1780  86.8880 15.27586583 96569

JSON: /api/v1/satellites/62490 · /tle

For live sub-satellite position, see the globe view (requires WebGL).

§ Visibility from observer

Set your observer location to see the next 7 days of passes ≥ 10°. The values pass through the URL so the page stays shareable.

No JS? Fill the form by hand. The geolocation button needs JavaScript.